FW2775 Weather Reports


time (UTC)temp
F
wind
direction
speed
knots
gust
knots
rain 1hr
in
rain 24hr
in
rain mn
in
humidity
%
barometer
mb
20210723160616 82 25 2.6 4.3 0.00 0.00 0.00 51 1022.7
20210723155616 81 59 1.7 4.3 0.00 0.00 0.00 50 1022.6
20210723154616 81 9 2.6 7.0 0.00 0.00 0.00 57 1022.5
20210723153616 80 20 3.5 7.0 0.00 0.00 0.00 54 1022.6
20210723152617 80 4 4.3 7.8 0.00 0.00 0.00 62 1022.7
20210723151618 79 34 1.7 4.3 0.00 0.00 0.00 66 1022.8
20210723150615 79 81 0.9 2.6 0.00 0.00 0.00 69 1022.8
20210723145617 79 353 2.6 6.1 0.00 0.00 0.00 69 1022.8
20210723144616 79 11 0.9 7.0 0.00 0.00 0.00 69 1023.1
20210723143615 78 14 0.9 1.7 0.00 0.00 0.00 72 1022.9
20210723142615 77 68 1.7 3.5 0.00 0.00 0.00 74 1022.9
20210723141617 76 352 0.9 2.6 0.00 0.00 0.00 77 1022.9
20210723140619 76 10 2.6 4.3 0.00 0.00 0.00 77 1023.0
20210723135620 75 348 1.7 5.2 0.00 0.00 0.00 78 1022.9
20210723134616 74 359 1.7 3.5 0.00 0.00 0.00 79 1023.0
20210723133617 74 4 2.6 4.3 0.00 0.00 0.00 78 1022.9
20210723132615 74 0 1.7 3.5 0.00 0.00 0.00 79 1022.9
20210723131616 73 342 3.5 6.1 0.00 0.00 0.00 80 1022.8
20210723130615 72 61 0.0 4.3 0.00 0.00 0.00 81 1022.7
20210723125615 72 355 2.6 4.3 0.00 0.00 0.00 81 1022.6
20210723124615 72 2 0.9 2.6 0.00 0.00 0.00 81 1022.5
20210723123616 72 260 0.0 2.6 0.00 0.00 0.00 82 1022.5
20210723122615 71 57 0.9 2.6 0.00 0.00 0.00 82 1022.3
20210723121617 71 46 0.9 2.6 0.00 0.00 0.00 83 1022.2
20210723120616 71 309 0.9 1.7 0.00 0.00 0.00 83 1022.1
20210723115615 71 348 3.5 5.2 0.00 0.00 0.00 82 1022.1
20210723114616 70 270 0.9 3.5 0.00 0.00 0.00 83 1022.0
20210723113615 70 327 0.9 3.5 0.00 0.00 0.00 83 1021.8
20210723112617 70 7 0.9 2.6 0.00 0.00 0.00 83 1021.6
20210723111615 69 352 0.9 2.6 0.00 0.00 0.00 84 1021.8
20210723110616 69 314 0.9 2.6 0.00 0.00 0.00 84 1021.7
20210723105617 69 337 0.9 3.5 0.00 0.00 0.00 84 1021.6
20210723104615 69 9 1.7 2.6 0.00 0.00 0.00 84 1021.4
20210723103617 69 0.0 0.0 0.00 0.00 0.00 83 1021.4
20210723102619 69 0.0 0.0 0.00 0.00 0.00 83 1021.3
20210723101617 69 19 0.0 0.9 0.00 0.00 0.00 83 1021.3
20210723100617 69 19 0.0 1.7 0.00 0.00 0.00 83 1021.1
20210723095619 69 0.0 0.0 0.00 0.00 0.00 83 1021.1
20210723094617 69 27 0.0 2.6 0.00 0.00 0.00 83 1021.0
20210723093617 69 52 0.9 1.7 0.00 0.00 0.00 83 1021.1
20210723092617 69 52 0.0 1.7 0.00 0.00 0.00 83 1021.0
20210723091617 69 63 0.9 1.7 0.00 0.00 0.00 83 1021.1
20210723090617 69 0.0 0.9 0.00 0.00 0.00 82 1021.1
20210723085619 70 62 0.0 0.9 0.00 0.00 0.00 82 1021.1
20210723084617 70 63 0.0 0.9 0.00 0.00 0.00 81 1021.2
20210723083617 70 63 0.9 1.7 0.00 0.00 0.00 81 1021.1
20210723082617 70 63 0.9 1.7 0.00 0.00 0.00 81 1021.0
20210723081617 71 63 0.9 1.7 0.00 0.00 0.00 80 1021.0
20210723080617 71 63 0.9 1.7 0.00 0.00 0.00 79 1021.0
20210723075618 71 72 0.9 2.6 0.00 0.00 0.00 79 1021.0
20210723074618 71 77 0.0 0.9 0.00 0.00 0.00 79 1021.1
20210723073618 71 77 0.0 1.7 0.00 0.00 0.00 78 1021.1
20210723072618 71 54 1.7 3.5 0.00 0.00 0.00 79 1021.1
20210723071616 71 53 0.9 2.6 0.00 0.00 0.00 79 1021.1
20210723070618 71 25 1.7 2.6 0.00 0.00 0.00 78 1021.2
20210723065617 72 31 1.7 2.6 0.00 0.00 0.00 79 1021.3
20210723064617 72 33 0.9 1.7 0.00 0.00 0.00 78 1021.5
20210723063617 72 39 0.9 1.7 0.00 0.00 0.00 78 1021.5
20210723062618 72 38 0.9 2.6 0.00 0.00 0.00 78 1021.8
20210723061621 72 20 1.7 3.5 0.00 0.00 0.00 78 1021.7
20210723060616 72 62 0.9 2.6 0.00 0.00 0.00 78 1021.8
20210723055616 73 33 0.9 1.7 0.00 0.00 0.00 78 1021.9
20210723054618 73 32 0.9 2.6 0.00 0.00 0.00 77 1022.0
20210723053616 73 0.0 0.0 0.00 0.00 0.00 77 1022.2
20210723052616 73 29 0.0 0.9 0.00 0.00 0.00 76 1022.2
20210723051618 73 29 0.9 1.7 0.00 0.00 0.00 76 1022.2
20210723050618 74 29 0.9 2.6 0.00 0.00 0.00 76 1022.3
20210723045616 74 29 0.0 1.7 0.00 0.00 0.00 75 1022.3
20210723044616 74 29 0.0 1.7 0.00 0.00 0.00 75 1022.4
20210723043616 74 1 1.7 2.6 0.00 0.00 0.00 74 1022.4
20210723042616 75 329 0.0 1.7 0.00 0.00 0.00 73 1022.3
20210723041616 75 329 0.0 0.9 0.00 0.00 0.00 73 1022.3
20210723040616 75 329 0.0 0.9 0.00 0.00 0.00 72 1022.4
20210723035615 75 329 0.9 2.6 0.00 0.00 0.00 72 1022.2
20210723034620 76 350 1.7 5.2 0.00 0.00 0.00 72 1021.9
20210723033616 76 357 1.7 3.5 0.00 0.00 0.00 71 1021.9
20210723032615 76 12 1.7 2.6 0.00 0.00 0.00 71 1021.9
20210723031615 76 27 1.7 2.6 0.00 0.00 0.00 71 1021.8
20210723030618 76 23 0.9 2.6 0.00 0.00 0.00 71 1021.8
20210723025617 76 34 0.9 2.6 0.00 0.00 0.00 70 1021.7
20210723024617 77 36 0.9 2.6 0.00 0.00 0.00 70 1021.7
20210723023617 77 37 0.9 2.6 0.00 0.00 0.00 70 1021.7
20210723022617 77 37 1.7 2.6 0.00 0.00 0.00 69 1021.5
20210723021617 77 14 1.7 3.5 0.00 0.00 0.00 69 1021.4
20210723020620 78 68 0.9 2.6 0.00 0.00 0.00 69 1021.3
20210723015617 78 72 0.9 2.6 0.00 0.00 0.00 68 1021.3
20210723014617 78 36 0.9 2.6 0.00 0.00 0.00 67 1021.2
20210723013617 78 34 0.9 3.5 0.00 0.00 0.00 67 1021.3
20210723012617 79 35 1.7 3.5 0.00 0.00 0.00 67 1021.1
20210723011618 79 39 0.9 2.6 0.00 0.00 0.00 66 1021.1
20210723010617 79 43 1.7 2.6 0.00 0.00 0.00 65 1021.0
20210723005618 80 36 0.9 3.5 0.00 0.00 0.00 64 1021.0
20210723004616 80 37 0.9 2.6 0.00 0.00 0.00 63 1020.9
20210723003617 80 42 1.7 2.6 0.00 0.00 0.00 62 1020.8
20210723002618 81 68 0.9 2.6 0.00 0.00 0.00 62 1020.8
20210723001617 81 81 0.9 3.5 0.00 0.00 0.00 61 1020.8
20210723000617 82 53 1.7 3.5 0.00 0.00 0.00 60 1020.8
20210722235618 82 71 1.7 3.5 0.00 0.00 0.00 59 1020.7
20210722234617 83 19 1.7 3.5 0.00 0.00 0.00 58 1020.7
20210722233619 83 90 0.9 2.6 0.00 0.00 0.00 57 1020.6
20210722232619 83 89 1.7 3.5 0.00 0.00 0.00 56 1020.4
20210722231617 84 92 2.6 3.5 0.00 0.00 0.00 55 1020.5
20210722230616 84 73 2.6 4.3 0.00 0.00 0.00 55 1020.5
20210722225619 84 69 1.7 3.5 0.00 0.00 0.00 55 1020.4
20210722224616 84 22 1.7 3.5 0.00 0.00 0.00 53 1020.4
20210722223619 85 23 1.7 3.5 0.00 0.00 0.00 53 1020.3
20210722222616 85 58 1.7 3.5 0.00 0.00 0.00 52 1020.3
20210722221618 85 59 0.9 1.7 0.00 0.00 0.00 50 1020.2
20210722220616 86 42 0.0 2.6 0.00 0.00 0.00 50 1020.2
20210722215618 86 136 0.9 3.5 0.00 0.00 0.00 49 1020.1
20210722214617 86 46 0.0 1.7 0.00 0.00 0.00 51 1020.1
20210722213616 85 335 1.7 2.6 0.00 0.00 0.00 51 1020.0
20210722212618 85 21 0.9 3.5 0.00 0.00 0.00 51 1019.9
20210722211616 87 26 3.5 7.0 0.00 0.00 0.00 49 1019.9
20210722210617 88 36 0.9 2.6 0.00 0.00 0.00 47 1020.0
20210722205617 88 223 0.0 1.7 0.00 0.00 0.00 49 1019.9
20210722204617 88 227 0.9 1.7 0.00 0.00 0.00 47 1020.0
20210722203616 87 238 0.9 3.5 0.00 0.00 0.00 49 1020.0
20210722202619 86 96 0.9 3.5 0.00 0.00 0.00 50 1020.0
20210722201616 85 15 1.7 2.6 0.00 0.00 0.00 52 1020.1
20210722200616 86 15 1.7 6.1 0.00 0.00 0.00 50 1020.0
20210722195616 86 159 0.0 3.5 0.00 0.00 0.00 50 1020.0
20210722194617 85 56 0.9 3.5 0.00 0.00 0.00 51 1020.1
20210722193617 86 8 3.5 6.1 0.00 0.00 0.00 50 1020.3
20210722192616 87 248 0.9 2.6 0.00 0.00 0.00 49 1020.3
20210722191618 86 303 0.9 2.6 0.00 0.00 0.00 50 1020.4
20210722190616 86 51 1.7 3.5 0.00 0.00 0.00 52 1020.4
20210722185617 85 179 0.9 4.3 0.00 0.00 0.00 51 1020.4
20210722184616 84 1 2.6 6.1 0.00 0.00 0.00 51 1020.7
20210722183616 85 359 5.2 7.8 0.00 0.00 0.00 51 1020.9
20210722182618 85 80 0.9 4.3 0.00 0.00 0.00 52 1021.0
20210722181616 85 198 0.0 3.5 0.00 0.00 0.00 52 1021.0
20210722180617 85 269 0.9 2.6 0.00 0.00 0.00 51 1021.0
20210722175621 85 284 1.7 2.6 0.00 0.00 0.00 51 1021.3
20210722174617 84 121 3.5 5.2 0.00 0.00 0.00 52 1021.4
20210722173616 85 76 2.6 4.3 0.00 0.00 0.00 52 1021.4
20210722172616 84 32 1.7 2.6 0.00 0.00 0.00 52 1021.5
20210722171616 84 34 0.0 1.7 0.00 0.00 0.00 55 1021.6
20210722170616 84 26 1.7 3.5 0.00 0.00 0.00 53 1021.6
20210722165616 83 21 1.7 4.3 0.00 0.00 0.00 55 1021.6
20210722164616 82 175 0.0 1.7 0.00 0.00 0.00 56 1021.7
20210722163617 81 78 2.6 6.1 0.00 0.00 0.00 56 1021.8
20210722162616 82 36 2.6 5.2 0.00 0.00 0.00 55 1021.8
20210722161617 82 29 1.7 4.3 0.00 0.00 0.00 56 1022.0